Starlink 11508

operational
NORAD ID: 62515 Int'l Des: 2025-004 Owner: SPXS Country: US Constellation: starlink
LEOCIRCULAR

About Starlink 11508

Description loading...

Live Position

Loading 3D Globe...

Upcoming Passes

Altitude History

Altitude vs Time

uPlot chart will show altitude changes over time

Two-Line Element Set

1 62515U 25004E 25353.84921661 .00208970 00000-0 15848-2 0 9999
2 62515 42.9994 191.8078 0003642 257.7368 102.3092 15.70935807 54657
Epoch: Dec 19, 2025 • Age: 7 hours

Current Status

Altitude 357.1 km
Velocity 7.70 km/s
Sub-Earth Point 26.10°N, 156.49°W
Launch Date Jan 8, 2025
Age 0.9 years
Type internet

Technical Details

Classification Payload
Mass 960.00 kg
Dry Mass 910.00 kg
Total Mass 960.00 kg
Length 0.30 m
Diameter 4.10 m
Span 29.00 m
Shape Box + pan
Manufacturer SPXS
Bus Type Starlink V2MD
Phase Status In Orbit
Owner/State SPXS/US

Large Constellations

Loading constellations...